Riverside March, CA

7:18 PM PDT on May 27, 2017 (GMT -0700)
March Air Reserve Base

Weather History for KRIV - December, 2013

Change the Weather History Date:

Saturday, December 28, 2013

  Actual Average Record
Temperature  
Mean Temperature 54 °F -  
Max Temperature 72 °F 63 °F 78 °F (2011)
Min Temperature 37 °F 38 °F 23 °F (2015)
Degree Days  
Heating Degree Days 10    
Growing Degree Days 4 (Base 50)    
Moisture  
Dew Point 23 °F    
Average Humidity 36    
Maximum Humidity 61    
Minimum Humidity 12    
Precipitation  
Precipitation 0.00 in - - ()
Sea Level Pressure  
Sea Level Pressure 30.00 in    
Wind  
Wind Speed 1 mph (ENE)    
Max Wind Speed 7 mph    
Max Gust Speed -    
Visibility 10 miles    
Events      
Averages and records for this station are not official NWS values.
T = Trace of Precipitation, MM = Missing Value Source: NWS Daily Summary

Daily Weather History Graph

Daily Weather History Graph

Search for Another Location

Airport or City:

Trip Planner

Search our weather history database for the weather conditions in past years. The results will help you decide how hot, cold, wet, or windy it might be!

Date:

Astronomy

Dec. 28, 2013 Rise Set
Actual Time 6:53 AM PST 4:48 PM PST
Civil Twilight 6:25 AM PST 5:16 PM PST
Nautical Twilight 5:54 AM PST 5:47 PM PST
Astronomical Twilight 5:23 AM PST 6:17 PM PST
Moon 2:41 AM PST 1:37 PM PST
Length of Visible Light 10h 50m
Length of Day
9h 55m
Waning Crescent, 18% of the Moon is Illuminated
Dec 28
Waning Crescent
Jan 1
New
Jan 7
First Quarter
Jan 15
Full
Jan 23
Last Quarter

Hourly Weather History & Observations

Time (PST) Temp. Windchill Dew Point Humidity Pressure Visibility Wind Dir Wind Speed Gust Speed Precip Events Conditions
12:58 AM 43.7 °F - 24.1 °F 46% 30.05 in 10.0 mi Calm Calm - N/A   Clear
1:58 AM 45.9 °F - 23.5 °F 41% 30.03 in 10.0 mi Calm Calm - N/A   Clear
2:58 AM 42.8 °F - 24.6 °F 49% 30.04 in 10.0 mi Calm Calm - N/A   Clear
3:58 AM 42.6 °F - 25.5 °F 51% 30.02 in 10.0 mi Calm Calm - N/A   Clear
4:58 AM 43.2 °F - 25.9 °F 51% 30.02 in 10.0 mi Calm Calm - N/A   Clear
5:58 AM 45.3 °F - 27.0 °F 49% 30.02 in 10.0 mi ENE 2.3 mph - N/A   Clear
6:58 AM 42.6 °F 39.9 °F 27.0 °F 54% 30.04 in 10.0 mi NE 4.6 mph - N/A   Clear
7:58 AM 45.0 °F - 27.1 °F 50% 30.04 in 10.0 mi Calm Calm - N/A   Mostly Cloudy
8:58 AM 48.6 °F - 26.2 °F 42% 30.06 in 10.0 mi Calm Calm - N/A   Clear
9:58 AM 55.6 °F - 25.3 °F 31% 30.05 in 10.0 mi East 1.2 mph - N/A   Clear
10:58 AM 64.4 °F - 17.1 °F 16% 30.02 in 10.0 mi SE 2.3 mph - N/A   Clear
11:58 AM 68.0 °F - 17.4 °F 14% 29.98 in 10.0 mi SE 5.8 mph - N/A   Clear
12:58 PM 71.6 °F - 18.5 °F 13% 29.94 in 10.0 mi SSE 3.5 mph - N/A   Clear
1:58 PM 72.7 °F - 17.6 °F 12% 29.93 in 10.0 mi Variable 1.2 mph - N/A   Clear
2:58 PM 72.7 °F - 19.2 °F 13% 29.93 in 10.0 mi NW 6.9 mph - N/A   Clear
3:58 PM 70.2 °F - 20.1 °F 15% 29.93 in 10.0 mi NNW 6.9 mph - N/A   Clear
4:58 PM 66.6 °F - 18.1 °F 16% 29.94 in 10.0 mi South 2.3 mph - N/A   Clear
5:58 PM 55.6 °F - 19.0 °F 24% 29.96 in 10.0 mi NNW 2.3 mph - N/A   Clear
6:58 PM 53.4 °F - 19.6 °F 27% 29.97 in 10.0 mi SSW 1.2 mph - N/A   Clear
7:58 PM 46.2 °F - 21.0 °F 37% 29.99 in 10.0 mi ESE 2.3 mph - N/A   Clear
8:58 PM 43.2 °F - 23.5 °F 46% 30.01 in 10.0 mi NNE 1.2 mph - N/A   Clear
9:58 PM 40.3 °F - 24.8 °F 54% 30.01 in 10.0 mi NNW 2.3 mph - N/A   Clear
10:58 PM 37.8 °F - 24.1 °F 58% 30.01 in 10.0 mi North 1.2 mph - N/A   Clear
11:58 PM 37.9 °F - 25.5 °F 61% 30.01 in 10.0 mi ENE 2.3 mph - N/A   Clear